Regional Weather Roundup
Issued by NWS

Home | Current Version | Previous Version | Text Only | Print | Product List | Glossary On
Versions: 1 2 3 4 5 6 7 8 9 10 11 12 13 14 15 16 17 18 19 20 21 22 23 24 25 26 27 28 29 30 31 32 33 34 35 36 37 38 39 40 41 42 43 44 45 46 47 48 49 50
000
ASUS43 KLSX 261607
RWRMO

WEATHER SUMMARY FOR MISSOURI
NATIONAL WEATHER SERVICE SPRINGFIELD MO
1100 AM CDT TUE SEP 26 2017

NOTE: "FAIR" INDICATES FEW OR NO CLOUDS BELOW 12,000 FEET WITH NO
       SIGNIFICANT WEATHER AND/OR OBSTRUCTIONS TO VISIBILITY.
       CURRENT SKY AND/OR WEATHER CONDITIONS ARE NOT AVAILABLE FOR
       CHILLICOTHE AND FARMINGTON.

MOZ001>031-035>038-043-044-053-054-261700-
...NORTHERN AND WESTERN MISSOURI...

CITY           SKY/WX    TMP DP  RH WIND       PRES   REMARKS
KANSAS CTY INT DRIZZLE   63  62  97 NW10      30.07R
KANSAS C DTWN  CLOUDY    67  65  93 NW9       30.05R
LEE`S SUMMIT   CLOUDY    69  67  93 NW7       30.05R
ST JOSEPH      CLOUDY    63  61  93 NW8       30.08R
CHILLICOTHE      N/A     70  68  93 VRB7      30.04R
KIRKSVILLE     CLOUDY    74  67  78 NW6       30.02S

$$
MOZ066>068-077>081-088>096-101>105-261700-
...SOUTHWEST MISSOURI...

CITY           SKY/WX    TMP DP  RH WIND       PRES   REMARKS
SPRINGFIELD    SUNNY     79  67  66 W7        30.04R
JOPLIN         PTSUNNY   73  68  84 NE6       30.05R
BRANSON        MOSUNNY   81  64  57 SW5       30.05S

$$
MOZ032>034-039>042-045>050-055>058-069>072-261700-
...CENTRAL MISSOURI...

CITY           SKY/WX    TMP DP  RH WIND       PRES   REMARKS
COLUMBIA       PTSUNNY   78  67  68 W13       30.02R
JEFFERSON CITY MOSUNNY   78  65  63 W8        30.01R
ROLLA          PTSUNNY   79  64  60 SW9       30.04R
SEDALIA        CLOUDY    77  66  68 NW6       30.04R
WHITEMAN AFB   PTSUNNY   73  64  75 N7        30.02S
WARRENSBURG    CLOUDY    72  63  73 NW3       30.03R
OSAGE BEACH    SUNNY     78  66  66 W8        30.03R

$$
MOZ051-052-059>065-261700-
...EAST CENTRAL MISSOURI...

CITY           SKY/WX    TMP DP  RH WIND       PRES   REMARKS
ST LOUIS INTL  MOSUNNY   87  64  46 SW10      30.01S
SPIRIT OF STL  SUNNY     86  66  51 SW6       29.99S
ST CHARLES     SUNNY     86  63  45 SW10      29.99S

$$
MOZ072>076-082>087-097>100-106>115-261700-
...SOUTH CENTRAL AND SOUTHEAST MISSOURI...

CITY           SKY/WX    TMP DP  RH WIND       PRES   REMARKS
CAPE GIRARDEAU SUNNY     85  64  49 CALM      30.02S
FARMINGTON     SUNNY     85  65  51 S6        30.04S
POPLAR BLUFF   SUNNY     83  67  58 VRB3      30.01F
WEST PLAINS    SUNNY     84  62  47 SW7       30.05S

$$



USA.gov is the U.S. government's official web portal to all federal, state and local government web resources and services.